Weather History for Golovin, AK

Change the Weather History Date:

Tuesday, October 30, 2012

  Actual Average Record
Temperature  
Mean Temperature 22 °F -  
Max Temperature 26 °F - - ()
Min Temperature 19 °F - - ()
Degree Days  
Heating Degree Days 42    
Moisture  
Dew Point 18 °F    
Average Humidity 78    
Maximum Humidity 93    
Minimum Humidity 64    
Precipitation  
Precipitation 0.00 in - - ()
Sea Level Pressure  
Sea Level Pressure 30.39 in    
Wind  
Wind Speed 13 mph (NNW)    
Max Wind Speed 22 mph    
Max Gust Speed 30 mph    
Visibility 10 miles    
Events      
T = Trace of Precipitation, MM = Missing Value Source: NWS Daily Summary

Daily Weather History Graph

Daily Weather History Graph

Search for Another Location

Airport:

Trip Planner

Search our weather history database for the weather conditions in past years. The results will help you decide how hot, cold, wet, or windy it might be!

Date:

Astronomy

Oct. 30, 2012 Rise Set
Actual Time 10:33 AM AKDT 6:36 PM AKDT
Civil Twilight 9:39 AM AKDT 7:30 PM AKDT
Nautical Twilight 8:42 AM AKDT 8:28 PM AKDT
Astronomical Twilight 7:46 AM AKDT 9:23 PM AKDT
Moon 6:32 PM AKDT (10/30) 12:10 PM AKDT (10/30)
Length of Visible Light 9h 50m
Length of Day
8h 02m
Full, 99% of the Moon is Illuminated
Oct 30
Full
Nov 6
Last Quarter
Nov 13
New
Nov 20
First Quarter
Nov 28
Full

Hourly Weather History & Observations

Time (AKDT) Temp. Windchill Dew Point Humidity Pressure Visibility Wind Dir Wind Speed Gust Speed Precip Events Conditions
12:16 AM 23.0 °F 10.6 °F 19.4 °F 86% 30.38 in 10.0 mi NW 13.8 mph 19.6 mph N/A   Clear
12:56 AM 19.4 °F 12.8 °F 15.8 °F 86% 30.39 in 10.0 mi North 4.6 mph - N/A   Mostly Cloudy
1:16 AM 19.4 °F 12.8 °F 17.6 °F 93% 30.39 in 10.0 mi NNE 4.6 mph - N/A   Mostly Cloudy
1:36 AM 23.0 °F 12.4 °F 21.2 °F 93% 30.39 in 10.0 mi NW 10.4 mph 24.2 mph N/A   Partly Cloudy
1:56 AM 23.0 °F 11.7 °F 19.4 °F 86% 30.40 in 10.0 mi NW 11.5 mph 17.3 mph N/A   Clear
2:16 AM 21.2 °F 14.9 °F 19.4 °F 93% 30.41 in 10.0 mi North 4.6 mph - N/A   Partly Cloudy
2:36 AM 23.0 °F 13.1 °F 19.4 °F 86% 30.40 in 10.0 mi NW 9.2 mph - N/A   Mostly Cloudy
2:56 AM 23.0 °F 12.4 °F 17.6 °F 80% 30.40 in 10.0 mi NNW 10.4 mph 17.3 mph N/A   Mostly Cloudy
3:16 AM 24.8 °F 14.0 °F 17.6 °F 74% 30.41 in 10.0 mi NW 11.5 mph 17.3 mph N/A   Mostly Cloudy
3:36 AM 23.0 °F 11.1 °F 19.4 °F 86% 30.41 in 10.0 mi WNW 12.7 mph 16.1 mph N/A   Overcast
3:56 AM 24.8 °F 12.9 °F 21.2 °F 86% 30.40 in 10.0 mi WNW 13.8 mph 19.6 mph N/A   Overcast
4:16 AM 23.0 °F 10.6 °F 19.4 °F 86% 30.40 in 10.0 mi NW 13.8 mph 20.7 mph N/A   Overcast
4:36 AM 24.8 °F 12.4 °F 19.4 °F 80% 30.40 in 10.0 mi NW 15.0 mph 19.6 mph N/A   Mostly Cloudy
4:56 AM 23.0 °F 9.6 °F 19.4 °F 86% 30.39 in 10.0 mi NW 16.1 mph 19.6 mph N/A   Partly Cloudy
5:16 AM 24.8 °F 12.9 °F 21.2 °F 86% 30.39 in 10.0 mi NW 13.8 mph 21.9 mph N/A   Clear
5:36 AM 24.8 °F 11.9 °F 21.2 °F 86% 30.39 in 10.0 mi NW 16.1 mph 19.6 mph N/A   Clear
5:56 AM 24.8 °F 12.4 °F 19.4 °F 80% 30.39 in 10.0 mi NW 15.0 mph 20.7 mph N/A   Partly Cloudy
6:16 AM 24.8 °F 12.9 °F 19.4 °F 80% 30.39 in 10.0 mi NW 13.8 mph - N/A   Partly Cloudy
6:36 AM 24.8 °F 12.4 °F 19.4 °F 80% 30.39 in 10.0 mi NW 15.0 mph 18.4 mph N/A   Clear
6:56 AM 24.8 °F 11.9 °F 19.4 °F 80% 30.38 in 10.0 mi NW 16.1 mph - N/A   Clear
7:16 AM 24.8 °F 11.5 °F 19.4 °F 80% 30.38 in 10.0 mi NW 17.3 mph 24.2 mph N/A   Clear
8:16 AM 24.8 °F 11.1 °F 21.2 °F 86% 30.37 in 10.0 mi NW 18.4 mph 25.3 mph N/A   Partly Cloudy
8:36 AM 26.6 °F 12.4 °F 19.4 °F 74% 30.36 in 10.0 mi NNW 21.9 mph 28.8 mph N/A   Clear
8:56 AM 26.6 °F 12.4 °F 19.4 °F 74% 30.35 in 10.0 mi NNW 21.9 mph 29.9 mph N/A   Clear
9:16 AM 26.6 °F 12.4 °F 19.4 °F 74% 30.36 in 10.0 mi NNW 21.9 mph 29.9 mph N/A   Mostly Cloudy
9:36 AM 26.6 °F 12.4 °F 19.4 °F 74% 30.36 in 10.0 mi NNW 21.9 mph 29.9 mph N/A   Overcast
10:16 AM 26.6 °F 14.3 °F 19.4 °F 74% 30.38 in 10.0 mi North 16.1 mph - N/A   Overcast
10:36 AM 26.6 °F 15.2 °F 19.4 °F 74% 30.39 in 10.0 mi North 13.8 mph - N/A   Mostly Cloudy
10:56 AM 24.8 °F 12.9 °F 19.4 °F 80% 30.39 in 10.0 mi NNW 13.8 mph 20.7 mph N/A   Clear
11:16 AM 26.6 °F 14.3 °F 19.4 °F 74% 30.39 in 10.0 mi NNW 16.1 mph 23.0 mph N/A   Clear
11:56 AM 24.8 °F 14.6 °F 19.4 °F 80% 30.40 in 10.0 mi North 10.4 mph - N/A   Partly Cloudy
12:16 PM 24.8 °F 14.6 °F 19.4 °F 80% 30.40 in 10.0 mi North 10.4 mph 16.1 mph N/A   Clear
12:36 PM 24.8 °F 14.6 °F 19.4 °F 80% 30.40 in 10.0 mi North 10.4 mph - N/A   Clear
12:56 PM 24.8 °F 14.0 °F 19.4 °F 80% 30.40 in 10.0 mi North 11.5 mph - N/A   Clear
1:16 PM 24.8 °F 14.0 °F 19.4 °F 80% 30.40 in 10.0 mi North 11.5 mph - N/A   Clear
1:36 PM 24.8 °F 14.6 °F 19.4 °F 80% 30.41 in 10.0 mi North 10.4 mph - N/A   Clear
1:56 PM 26.6 °F 18.2 °F 19.4 °F 74% 30.40 in 10.0 mi North 8.1 mph 17.3 mph N/A   Clear
2:16 PM 26.6 °F 16.8 °F 19.4 °F 74% 30.40 in 10.0 mi North 10.4 mph 16.1 mph N/A   Clear
2:36 PM 26.6 °F 16.2 °F 17.6 °F 69% 30.40 in 10.0 mi North 11.5 mph 16.1 mph N/A   Clear
2:56 PM 26.6 °F 15.7 °F 17.6 °F 69% 30.39 in 10.0 mi North 12.7 mph 19.6 mph N/A   Clear
3:16 PM 26.6 °F 14.3 °F 17.6 °F 69% 30.39 in 10.0 mi North 16.1 mph 21.9 mph N/A   Clear
3:36 PM 26.6 °F 12.4 °F 17.6 °F 69% 30.38 in 10.0 mi North 21.9 mph 28.8 mph N/A   Clear
3:56 PM 26.6 °F 13.1 °F 17.6 °F 69% 30.38 in 10.0 mi North 19.6 mph 28.8 mph N/A   Clear
4:16 PM 26.6 °F 12.4 °F 17.6 °F 69% 30.38 in 10.0 mi North 21.9 mph 27.6 mph N/A   Clear
4:36 PM 26.6 °F 13.1 °F 15.8 °F 64% 30.39 in 10.0 mi North 19.6 mph 29.9 mph N/A   Clear
4:56 PM 26.6 °F 14.3 °F 17.6 °F 69% 30.40 in 10.0 mi North 16.1 mph 23.0 mph N/A   Clear
5:16 PM 26.6 °F 14.3 °F 17.6 °F 69% 30.39 in 10.0 mi North 16.1 mph 23.0 mph N/A   Scattered Clouds
5:36 PM 26.6 °F 13.8 °F 15.8 °F 64% 30.39 in 10.0 mi North 17.3 mph 24.2 mph N/A   Partly Cloudy
5:56 PM 24.8 °F 11.1 °F 17.6 °F 74% 30.39 in 10.0 mi North 18.4 mph 25.3 mph N/A   Clear
6:16 PM 24.8 °F 11.1 °F 17.6 °F 74% 30.39 in 10.0 mi North 18.4 mph 24.2 mph N/A   Clear
6:36 PM 24.8 °F 11.9 °F 15.8 °F 69% 30.39 in 10.0 mi North 16.1 mph - N/A   Clear
6:56 PM 24.8 °F 11.5 °F 15.8 °F 69% 30.39 in 10.0 mi North 17.3 mph - N/A   Clear
7:16 PM 24.8 °F 12.9 °F 15.8 °F 69% 30.40 in 10.0 mi NNW 13.8 mph 18.4 mph N/A   Clear
7:36 PM 21.2 °F 9.5 °F 15.8 °F 80% 30.40 in 10.0 mi North 11.5 mph - N/A   Clear
7:56 PM 21.2 °F 8.9 °F 15.8 °F 80% 30.41 in 10.0 mi North 12.7 mph - N/A   Clear
8:16 PM 21.2 °F 7.8 °F 14.0 °F 74% 30.40 in 10.0 mi North 15.0 mph - N/A   Clear
8:36 PM 21.2 °F 6.8 °F 14.0 °F 74% 30.40 in 10.0 mi North 17.3 mph 20.7 mph N/A   Clear
8:56 PM 21.2 °F 6.8 °F 15.8 °F 80% 30.40 in 10.0 mi North 17.3 mph 23.0 mph N/A   Clear
9:16 PM 21.2 °F 6.8 °F 15.8 °F 80% 30.40 in 10.0 mi North 17.3 mph - N/A   Clear
9:36 PM 21.2 °F 7.8 °F 15.8 °F 80% 30.40 in 10.0 mi North 15.0 mph - N/A   Clear
9:56 PM 21.2 °F 8.3 °F 15.8 °F 80% 30.41 in 10.0 mi North 13.8 mph 17.3 mph N/A   Clear
10:16 PM 21.2 °F 8.9 °F 15.8 °F 80% 30.41 in 10.0 mi NNW 12.7 mph - N/A   Clear
10:36 PM 21.2 °F 8.9 °F 15.8 °F 80% 30.40 in 10.0 mi North 12.7 mph - N/A   Clear
10:56 PM 21.2 °F 10.1 °F 15.8 °F 80% 30.41 in 10.0 mi North 10.4 mph - N/A   Clear
11:16 PM 21.2 °F 9.5 °F 15.8 °F 80% 30.40 in 10.0 mi North 11.5 mph 17.3 mph N/A   Clear
11:56 PM 19.4 °F 7.2 °F 14.0 °F 80% 30.41 in 10.0 mi North 11.5 mph 16.1 mph N/A   Clear